www.pogodaiklimat.ru

Погода и климат >> Архив погоды >> Австралия >> Северная территория >> Теннант-Крик


ПОГОДА в Теннант-Крике

  • Прогноз погоды в Теннант-Крике
  • Монитор погоды в Теннант-Крике

АРХИВ ПОГОДЫ в Теннант-Крике

Время (UTC), дата Ветер
(напр.,м/с)
 
Видим.   Явления Облачность Т
(С)
Тd
(С)
f
(%)
Тe
(С)
Тes
(С)
Комфортность P
(гПа)
Po
(гПа)
Тmin
(С)
Tmax
(С)
R
(мм)
R24
(мм)
S
(см)
08 12.03 С 4 н/о н/о +39.8 +14.1 22 +40 +40 очень
душно
1005.5 963.9
09 12.03 С 5 н/о н/о +39.3 +13.7 22 +40 +40 очень
душно
1005.9 964.3
11 12.03 СВ 3 8000 м 10/0
[]
+36.2 +14.8 28 +37 +37 очень
жарко
1007.3 965.7
12 12.03 Ю 8 н/о н/о +32.5 +16.3 38 +35 +35 душно 1009.5 967.8
14 12.03 Ю 4 н/о 10/0
[]
+33.1 +15.1 34 +35 +35 душно 1009.3 967.6 +42.5
15 12.03 ЮВ 4 н/о н/о +32.8 +15.3 35 +35 +35 душно 1008.4 966.7
17 12.03 СВ 4 н/о н/о +31.4 +15.4 38 +34 +34 душно 1007.9 966.2
18 12.03 СВ 6 н/о н/о +31.3 +15.3 38 +34 +34 душно 1007.8 966.1
20 12.03 СВ 4 н/о н/о +29.4 +16.2 45 +33 +33 душно 1008.9 967.2
21 12.03 С 3 н/о н/о +29.3 +17.2 48 +33 +33 душно 1009.2 967.5
23 12.03 С 6 н/о н/о +30.5 +17.9 47 +35 +35 очень
душно
1011.4 969.6
00 13.03 С 6 н/о н/о +32.4 +18.2 43 +37 +37 очень
душно
1011.3 969.5
02 13.03 СЗ 5 н/о н/о +36.1 +16.3 31 +38 +38 очень
душно
1010.0 968.2 +29.0
03 13.03 ЮЗ 6 н/о н/о +37.7 +16.1 28 +40 +40 очень
душно
1009.1 967.4
05 13.03 ЮЗ 3 н/о 3/0
[]
+40.1 +14.3 22 +41 +41 опасность
перегрева
1007.0 965.4
06 13.03 З 3 н/о н/о +40.5 +14.6 22 +41 +41 опасность
перегрева
1006.4 964.8
08 13.03 Ю 5 н/о н/о +38.9 +12.6 21 +39 +39 очень
жарко
1005.7 964.1
09 13.03 СВ 6 н/о н/о +36.5 +15.0 28 +38 +38 очень
душно
1006.1 964.5
11 13.03 СЗ 5 н/о {туман} 10/0
[]
+28.3 +21.1 65 +36 +36 очень
душно
1008.2 966.5 4
12 13.03 С 4 н/о н/о +29.8 +21.2 60 +37 +37 очень
душно
1007.8 966.1
14 13.03 СВ 3 н/о 10/0
[]
+30.0 +19.7 54 +36 +36 очень
душно
1008.5 966.8 +41.5
15 13.03 СВ 3 н/о н/о +30.0 +19.4 53 +36 +36 очень
душно
1008.5 966.8
17 13.03 СВ 3 н/о н/о +28.6 +20.1 60 +35 +35 очень
душно
1008.3 966.6
18 13.03 СЗ 3 н/о н/о +27.3 +20.1 65 +34 +34 очень
душно
1008.8 967.1
20 13.03 В 4 н/о н/о +26.6 +20.0 67 +33 +33 очень
душно
1010.4 968.6
21 13.03 СВ 4 н/о н/о +25.8 +19.4 68 +31 +31 очень
душно
1011.2 969.4
23 13.03 С 2 н/о н/о +29.1 +20.0 58 +35 +35 очень
душно
1012.0 970.2 4
00 14.03 З 4 н/о н/о +31.6 +19.6 49 +37 +37 очень
душно
1012.1 970.3
02 14.03 З 4 н/о н/о +34.7 +18.3 38 +39 +39 очень
душно
1010.7 968.9 +25.4
03 14.03 З 4 н/о н/о +36.6 +16.7 31 +39 +39 очень
душно
1009.2 967.5
05 14.03 ЮВ 3 н/о 4/0
[]
+38.2 +13.4 23 +38 +38 очень
жарко
1006.7 965.1
06 14.03 В 4 н/о н/о +38.1 +13.3 23 +38 +38 очень
жарко
1005.8 964.2
08 14.03 Ю 3 н/о н/о +39.3 +12.9 21 +39 +39 очень
жарко
1005.1 963.5
09 14.03 ЮВ 4 н/о н/о +38.4 +12.2 21 +38 +38 очень
жарко
1005.2 963.6
11 14.03 В 3 н/о н/о +36.0 +12.3 24 +36 +36 очень
жарко
1006.8 965.2
12 14.03 В 4 н/о н/о +34.9 +12.0 25 +35 +35 очень
жарко
1007.6 965.9
14 14.03 В 4 н/о н/о +33.6 +10.9 25 +33 +33 жарко 1007.7 966.0 +40.1
15 14.03 В 5 н/о н/о +32.9 +7.7 21 +31 +31 жарко 1007.7 966.0
17 14.03 В 8 н/о н/о +31.6 +4.4 18 +29 +29 жарко 1007.3 965.7
18 14.03 В 8 н/о н/о +31.1 +0.5 14 +28 +28 жарко 1007.1 965.5
20 14.03 В 7 н/о 1/0
[]
+28.6 +2.7 19 +27 +27 жарко 1008.4 966.7
21 14.03 В 8 н/о н/о +29.1 +0.7 16 +27 +27 жарко 1009.0 967.3
23 14.03 В 10 н/о н/о +32.2 -2.0 11 +29 +29 жарко 1010.1 968.3
00 15.03 В 9 н/о н/о +33.3 -1.1 11 +30 +30 жарко 1010.7 968.9
02 15.03 В 7 н/о н/о +36.2 -0.2 10 +32 +32 жарко 1010.0 968.2 +28.4
03 15.03 СВ 6 н/о н/о +37.4 +0.7 10 +34 +34 очень
жарко
1009.0 967.3
05 15.03 В 7 н/о н/о +37.7 +2.2 11 +34 +34 очень
жарко
1007.0 965.4
06 15.03 В 5 н/о н/о +38.2 +1.3 10 +35 +35 очень
жарко
1006.1 964.5
08 15.03 ЮВ 5 н/о н/о +38.5 0.0 9 +35 +35 очень
жарко
1005.6 964.0
09 15.03 В 5 н/о н/о +37.4 +0.7 10 +34 +34 очень
жарко
1006.0 964.4
11 15.03 ЮВ 3 н/о н/о +34.4 +0.9 12 +31 +31 жарко 1007.3 965.7
12 15.03 ЮВ 4 н/о н/о +33.1 +1.0 13 +30 +30 жарко 1008.3 966.6
14 15.03 ЮВ 5 н/о 9/0
[]
+31.9 +3.0 16 +29 +29 жарко 1008.7 967.0 +39.6
15 15.03 ЮВ 7 н/о н/о +31.6 +3.6 17 +29 +29 жарко 1008.2 966.5
17 15.03 ЮВ 6 н/о 10/0
[]
+30.7 +4.4 19 +29 +29 жарко 1007.0 965.4
18 15.03 В 6 н/о н/о +30.5 +4.3 19 +28 +28 жарко 1007.2 965.6
20 15.03 В 5 н/о 9/0
[]
+29.3 +4.0 20 +27 +27 жарко 1008.5 966.8
21 15.03 В 5 н/о н/о +28.5 +4.1 21 +27 +27 жарко 1009.1 967.4
23 15.03 В 7 н/о 9/0
[]
+30.9 +3.8 18 +29 +29 жарко 1010.0 968.2
00 16.03 В 8 н/о н/о +33.5 +3.3 15 +31 +31 жарко 1010.6 968.8
02 16.03 В 8 н/о н/о +35.9 +2.1 12 +33 +33 жарко 1010.0 968.2 +27.8
03 16.03 В 8 н/о н/о +36.5 +1.3 11 +33 +33 жарко 1008.9 967.2
05 16.03 В 4 н/о н/о +37.9 +1.0 10 +34 +34 очень
жарко
1006.7 965.1
06 16.03 В 6 н/о н/о +38.0 +1.1 10 +34 +34 очень
жарко
1006.1 964.5
08 16.03 ЮВ 5 н/о н/о +37.3 +0.6 10 +34 +34 очень
жарко
1005.7 964.1
09 16.03 ЮВ 5 н/о н/о +36.5 +1.3 11 +33 +33 жарко 1006.0 964.4
11 16.03 ЮВ 3 н/о н/о +33.5 +0.2 12 +30 +30 жарко 1008.3 966.6
12 16.03 ЮВ 4 н/о н/о +32.3 +0.4 13 +29 +29 жарко 1009.3 967.6
14 16.03 В 4 н/о н/о +30.1 -1.3 13 +27 +27 жарко 1009.4 967.7 +38.8
15 16.03 В 5 н/о н/о +29.5 -1.8 13 +26 +26 жарко 1009.3 967.6
17 16.03 В 4 н/о н/о +28.4 -3.7 12 +25 +25 комфорт 1008.7 967.0
18 16.03 В 5 н/о н/о +27.1 -2.7 14 +25 +25 комфорт 1008.7 967.0
20 16.03 В 5 н/о н/о +25.4 -3.1 15 +23 +23 комфорт 1009.4 967.7
21 16.03 В 5 н/о н/о +23.6 -2.8 17 +22 +22 комфорт 1010.1 968.3
23 16.03 В 8 н/о н/о +29.9 -3.7 11 +27 +27 жарко 1010.7 968.9
00 17.03 В 8 н/о н/о +32.3 -3.2 10 +29 +29 жарко 1010.9 969.1
02 17.03 В 7 н/о н/о +35.0 -4.1 8 +31 +31 жарко 1010.0 968.2 +23.3
03 17.03 В 5 н/о н/о +36.0 -5.2 7 +32 +32 жарко 1009.2 967.5
05 17.03 В 5 н/о н/о +36.5 -6.8 6 +32 +32 жарко 1007.7 966.0
06 17.03 ЮВ 6 н/о н/о +37.1 -6.4 6 +33 +33 жарко 1007.1 965.5
08 17.03 ЮВ 5 н/о н/о +36.6 -6.8 6 +32 +32 жарко 1006.6 965.0
09 17.03 ЮВ 6 н/о н/о +35.8 -7.3 6 +31 +31 жарко 1007.0 965.4
11 17.03 В 4 н/о н/о +31.2 -5.4 9 +27 +27 жарко 1008.2 966.5
12 17.03 В 4 н/о н/о +30.8 -5.7 9 +27 +27 жарко 1009.1 967.4
14 17.03 В 4 н/о н/о +28.9 -5.7 10 +25 +25 комфорт 1010.2 968.4 +38.1
15 17.03 ЮВ 5 н/о н/о +28.4 -6.1 10 +25 +25 комфорт 1010.3 968.5
17 17.03 В 5 н/о н/о +27.6 -5.5 11 +25 +25 комфорт 1009.0 967.3
18 17.03 В 5 н/о н/о +26.5 -6.3 11 +24 +24 комфорт 1008.8 967.1
20 17.03 В 4 н/о н/о +24.0 -5.1 14 +22 +22 комфорт 1009.2 967.5
21 17.03 В 5 н/о н/о +23.2 -4.8 15 +21 +21 комфорт 1009.7 968.0
23 17.03 В 7 н/о н/о +28.9 -4.5 11 +26 +26 жарко 1010.4 968.6
00 18.03 В 7 н/о н/о +30.9 -4.2 10 +27 +27 жарко 1010.8 969.0
02 18.03 В 8 н/о н/о +34.4 -4.6 8 +30 +30 жарко 1009.7 968.0 +23.1
03 18.03 В 6 н/о н/о +35.5 -5.5 7 +31 +31 жарко 1008.7 967.0
05 18.03 В 7 н/о н/о +37.6 -6.0 6 +33 +33 жарко 1006.3 964.7
06 18.03 ЮВ 6 н/о н/о +37.3 -6.3 6 +33 +33 жарко 1005.6 964.0
08 18.03 ЮВ 5 н/о н/о +37.2 -6.3 6 +33 +33 жарко 1005.5 963.9
09 18.03 ЮВ 5 н/о н/о +35.9 -5.2 7 +32 +32 жарко 1005.8 964.2
11 18.03 В 3 н/о н/о +31.7 -5.0 9 +28 +28 жарко 1007.2 965.6
12 18.03 В 3 н/о н/о +30.0 -4.9 10 +26 +26 жарко 1008.1 966.4
14 18.03 В 3 н/о н/о +27.9 -3.0 13 +25 +25 комфорт 1008.8 967.1 +38.3
15 18.03 В 3 н/о н/о +27.6 -3.3 13 +25 +25 комфорт 1008.4 966.7
17 18.03 ЮВ 3 н/о н/о +27.1 -2.7 14 +25 +25 комфорт 1007.6 965.9
18 18.03 В 3 н/о н/о +25.0 -2.5 16 +23 +23 комфорт 1007.1 965.5
20 18.03 В 4 н/о н/о +24.6 -1.3 18 +23 +23 комфорт 1007.2 965.6
21 18.03 ЮВ 4 н/о н/о +24.8 -1.1 18 +23 +23 комфорт 1007.7 966.0
23 18.03 ЮВ 6 н/о н/о +29.3 -0.9 14 +26 +26 жарко 1008.6 966.9
00 19.03 В 5 н/о н/о +32.1 -2.0 11 +29 +29 жарко 1008.9 967.2
02 19.03 В 6 н/о н/о +36.0 -1.8 9 +32 +32 жарко 1008.4 966.7 +23.6
03 19.03 В 5 н/о н/о +37.6 -0.6 9 +34 +34 очень
жарко
1007.3 965.7
05 19.03 В 8 н/о н/о +39.0 -1.2 8 +35 +35 очень
жарко
1005.4 963.8
06 19.03 ЮВ 7 н/о н/о +38.4 -1.6 8 +34 +34 очень
жарко
1004.5 963.0

 

Местоположение метеостанции Теннант-Крик (Северная территория, Австралия): широта -19.63 долгота 134.18 высота над уровнем моря 377 м.

В архиве по умолчанию представлена погода в Теннант-Крике за последнюю неделю. Архивные данные за месяц целиком и за предыдущие месяцы, начиная с января 2011 года, Вы можете получить, выбрав интересующий диапазон дат из раскрывающегося списка и нажав кнопку "Ввод!".


*Определитесь, кто Вы:
робот инопланетянин человек

Внимание! Время в таблицах - всемирное. Для получения местного времени необходимо прибавить поправку, которая равна 9.5 ч.

Смотрите также архив погоды в соседних городах и на ближайших метеорологических станциях:

Погода на Виноградной ферма (Северная территория, Австралия) (319 км)
Погода в Дейли Уотерс (Северная территория, Австралия) (386 км)
Погода в Ладжаману (Северная территория, Австралия) (400 км)
Погода в Аэропорту Макартур Ривер Майн (Северная территория, Австралия) (408 км)
Погода в Камоауиле (Квинсленд, Австралия) (413 км)
Погода в Джервойсе (Северная территория, Австралия) (422 км)
Погода в Раббит Флат (Северная территория, Австралия) (439 км)
Погода в Борролооле (Северная территория, Австралия) (454 км)
Погода в Элис-Спрингсе (Северная территория, Австралия) (465 км)
Погода на Руднике Century Mine (Квинсленд, Австралия) (485 км)

Пояснения к столбцам:

Ветер - указаны скорость ветра в м/с - средняя за 10 мин, порывы в срок и между сроками (в фигурных скобках) и направление, откуда дует ветер: С - северный, СВ - северо-восточный, В - восточный, ЮВ - юго-восточный, Ю - южный, ЮЗ - юго-западный, З - западный, СЗ - северо-западный.
Видимость - горизонтальная дальность видимости в метрах или километрах. При видимости от 1 до 10 км при отсутствии осадков обычно наблюдается дымка, при ухудшении видимости до 1 км и менее - туман. В сухую погоду видимость может ухудшаться дымом, пылью или мглою.
Явления - указаны атмосферные явления, наблюдавшиеся в срок или в последний час перед сроком; фигурными скобками обозначены явления, наблюдавшиеся между сроками (за 1-3 часа до срока); квадратными скобками обозначены град или гололедные отложения с указанием их диаметра в мм.
Облачность - указаны через наклонную черту общая и нижняя облачность в баллах и высота нижней границы облаков в метрах; квадратными скобками обозначены формы облаков: Ci - перистые, Cs - перисто-слоистые, Cc - перисто-кучевые, Ac - высококучевые, As - высокослоистые, Sc - слоисто-кучевые, Ns - слоисто-дождевые, Cu - кучевые, Cb - кучево-дождевые. Подробнее классификацию облаков см. в Атласе облаков (PDF).
T - Температура воздуха - температура, измеренная на высоте 2 м над землей.
Td - Температура точки росы - температура, при понижении до которой содержащийся в воздухе водяной пар достигнет насыщения.
f - Относительная влажность воздуха - влажноcть воздуха, измеренная на высоте 2 м над землей.
Te - Эффективная температура - температура, которую ощущает одетый по сезону человек в тени. Характеристика душности погоды. При расчете учитывается влияние влажности воздуха и скорости ветра на теплоощущения человека.
Tes - Эффективная температура на солнце - температура, которую ощущает человек, с поправкой на солнечный нагрев. Характеристика знойности погоды. Зависит от высоты солнца над горизонтом, облачности и скорости ветра. Ночью, в пасмурную погоду, а также при ветре 12 м/с и более поправка равна нулю.
P - Атмосферное давление - приведенное к уровню моря атмосферное давление.
Po - Атмосферное давление - измеренное на уровне метеостанции атмосферное давление.
Tmin - Минимальная температура - минимум температуры воздуха на высоте 2 м над землей.
Tmax - Максимальная температура - максимум температуры воздуха на высоте 2 м над землей.
R - Количество осадков - Количество выпавших осадков за период времени, мм. При наведении курсора мыши на число - период времени, за который выпало указанное количество осадков.
R24 - Количество осадков - Количество выпавших осадков за 24 часа, мм.
S - Снежный покров - Высота снежного покрова, см. При наведении курсора мыши на число - состояние снежного покрова и степень покрытия местности в баллах.